Total_Precipitation_Accumulation
2.92 2.91 2.81 2.74 2.53 2.60 2.93 3.17 3.01 3.00 2.90 2.70 2.43 2.22 2.10 2.02 1.97 2.15 2.29 2.38 2.35 2.37 2.61 2.78 2.64 2.39 2.30 2.15 1.97 1.76 1.66 1.64 1.48 1.25 1.12 1.04 0.95 0.95 0.99 1.03 0.99 0.86 0.83
3.32 3.44 3.32 3.17 2.77 2.65 2.71 2.98 3.02 3.25 3.18 2.97 2.39 2.27 2.22 2.22 2.25 2.20 2.36 2.84 2.86 2.48 2.52 2.85 3.01 2.95 2.81 2.66 2.43 2.17 2.00 1.90 1.63 1.35 1.25 1.18 1.06 1.00 1.12 1.20 1.20 0.98 0.84
3.53 3.48 3.31 2.96 2.63 2.60 2.81 2.81 2.80 3.06 2.89 2.76 2.65 2.65 2.61 2.51 2.40 2.35 2.45 2.93 2.91 2.53 2.39 2.49 2.80 3.03 3.16 3.26 3.16 3.04 2.75 2.38 2.00 1.62 1.38 1.22 1.10 1.01 1.05 1.20 1.29 1.18 0.99
3.08 3.14 2.84 2.51 2.53 2.67 2.81 2.99 2.88 2.95 2.98 3.06 3.13 3.07 2.89 2.75 2.32 2.16 2.08 2.22 2.49 2.18 2.34 2.57 2.64 2.72 3.15 3.62 3.80 4.00 3.66 2.97 2.36 1.90 1.59 1.35 1.18 1.05 0.97 1.04 1.18 1.20 1.06
2.41 2.60 2.54 2.46 2.42 2.63 2.68 2.48 2.88 3.12 3.12 3.14 2.89 2.95 2.57 2.44 2.22 1.94 1.92 1.89 2.03 2.16 2.22 2.25 2.39 2.44 2.89 3.62 4.21 4.70 4.58 3.86 3.07 2.56 2.24 1.87 1.60 1.30 1.11 1.07 1.08 1.11 1.05
2.25 2.49 2.47 2.41 2.41 2.58 2.68 2.79 3.07 3.20 2.89 2.83 2.54 2.46 2.19 1.82 1.78 1.76 1.65 1.73 1.88 1.84 2.00 2.15 2.42 2.22 2.67 3.22 3.87 4.58 5.12 4.88 4.04 3.40 3.11 2.80 2.50 2.02 1.53 1.26 1.14 1.14 1.08
2.39 2.62 2.49 2.54 2.35 2.41 2.41 2.50 2.76 2.89 2.51 2.60 3.09 2.69 2.08 1.70 1.68 1.58 1.60 1.70 1.73 1.81 2.06 2.37 2.56 2.60 2.60 2.57 2.85 3.61 4.68 5.22 4.99 4.31 3.90 3.60 3.26 2.72 2.10 1.70 1.45 1.31 1.20
2.32 2.34 2.46 2.31 2.24 2.38 2.36 2.39 2.63 2.61 2.30 2.50 3.03 3.19 2.65 2.26 1.91 1.52 1.53 1.62 1.72 1.96 2.08 2.12 2.53 2.81 2.78 3.08 2.69 2.73 3.55 4.51 5.10 4.98 4.58 4.00 3.51 3.02 2.54 2.24 1.91 1.65 1.44
2.05 2.06 2.03 2.10 2.21 2.00 2.16 2.34 2.48 2.55 2.45 2.38 2.65 3.14 2.97 2.64 2.24 1.83 1.67 1.78 1.97 2.15 2.23 2.37 2.42 2.63 2.83 3.29 3.18 2.94 2.93 3.28 4.24 5.12 5.24 4.59 3.71 3.10 2.87 2.74 2.62 2.19 1.82
1.82 1.83 1.82 1.99 2.08 2.00 2.26 1.96 2.09 2.36 2.58 2.40 2.42 2.47 2.57 2.82 2.79 2.36 1.98 1.85 1.95 2.10 2.19 2.20 2.26 2.52 2.76 3.09 3.39 3.09 2.78 2.64 3.02 4.01 4.84 4.88 4.22 3.38 2.93 2.99 3.40 3.17 2.55
1.76 1.61 1.70 1.88 2.00 2.05 2.14 2.07 2.17 2.12 2.19 2.26 2.35 2.36 2.51 2.77 2.61 2.52 2.34 2.12 2.01 1.85 1.91 2.06 2.26 2.47 2.59 2.85 3.21 2.94 2.81 2.51 2.42 2.76 3.47 4.05 4.21 3.93 3.52 3.47 3.97 4.29 4.04
1.81 1.64 1.66 1.88 1.97 2.04 2.07 2.10 2.08 1.98 2.07 2.19 2.23 2.27 2.49 2.54 2.49 2.59 2.44 2.26 2.12 1.86 1.82 1.90 2.09 2.23 2.31 2.44 2.27 2.26 2.27 2.34 2.26 2.14 2.28 2.66 3.18 3.57 3.67 3.94 4.43 4.93 5.23
1.70 1.69 1.65 1.92 2.05 2.05 2.02 2.11 2.08 2.05 2.16 2.24 2.25 2.28 2.35 2.34 2.38 2.60 2.65 2.37 2.18 1.96 2.02 1.97 1.95 2.09 2.06 2.29 2.22 2.02 1.92 2.03 1.94 1.80 1.76 1.88 2.21 2.66 3.07 3.44 3.84 4.36 4.88
1.59 1.82 1.93 1.95 1.95 1.99 2.00 2.28 2.12 2.12 2.20 2.23 2.11 2.46 2.43 2.29 2.55 2.80 2.97 3.02 2.67 2.40 2.36 2.15 1.97 1.96 1.94 2.01 2.08 2.08 1.94 1.82 1.62 1.55 1.58 1.65 1.76 2.00 2.31 2.62 2.91 3.18 3.47
1.63 1.83 2.00 2.09 2.03 2.01 2.13 2.35 2.31 2.34 2.44 2.32 2.29 2.55 2.49 2.37 2.46 2.61 2.92 3.22 3.25 2.94 2.77 2.54 2.29 2.13 2.01 2.02 2.15 1.97 1.93 1.97 1.70 1.53 1.55 1.58 1.67 1.76 1.79 1.80 1.91 2.00 2.18
1.80 1.89 1.89 1.93 1.93 1.91 2.04 2.38 2.39 2.41 2.59 2.53 2.46 2.49 2.49 2.38 2.49 2.52 2.66 3.03 3.33 3.34 3.02 2.40 2.32 2.20 2.09 1.90 2.02 1.82 1.84 2.00 1.76 1.56 1.45 1.37 1.37 1.41 1.44 1.52 1.65 1.71 1.79
1.88 1.89 1.88 1.90 1.85 1.77 1.88 2.08 2.19 2.38 2.52 2.55 2.48 2.50 2.49 2.64 2.70 2.58 2.68 2.82 3.07 3.27 2.91 2.38 2.47 2.60 2.54 2.30 2.08 1.89 1.77 1.75 1.73 1.69 1.40 1.30 1.30 1.26 1.33 1.42 1.49 1.56 1.65
1.92 1.96 1.96 1.93 1.78 1.77 1.88 1.98 2.11 2.28 2.40 2.47 2.57 2.66 2.45 2.58 2.70 2.64 2.66 2.67 2.82 3.11 2.99 2.80 2.74 2.81 2.74 2.48 2.23 1.95 1.63 1.48 1.55 1.77 1.48 1.29 1.23 1.25 1.29 1.32 1.30 1.33 1.34
1.93 2.03 2.06 1.98 1.91 1.93 2.01 2.07 2.14 2.27 2.34 2.39 2.50 2.50 2.45 2.61 2.48 2.56 2.67 2.63 2.64 2.69 2.83 2.76 2.61 2.67 2.59 2.41 2.22 1.93 1.68 1.65 1.48 1.51 1.44 1.31 1.24 1.23 1.24 1.20 1.16 1.16 1.19
1.85 1.87 1.85 1.94 2.01 2.04 2.05 2.06 2.07 2.10 2.15 2.20 2.17 2.09 2.04 2.08 2.15 2.35 2.35 2.36 2.46 2.54 2.62 2.54 2.48 2.55 2.55 2.57 2.42 2.12 1.97 1.81 1.61 1.36 1.36 1.33 1.32 1.28 1.24 1.17 1.08 1.08 1.13
1.67 1.84 1.86 1.96 2.06 2.03 1.92 1.97 1.98 1.90 2.05 1.98 1.84 1.80 1.81 1.89 1.91 1.99 1.90 2.01 2.23 2.30 2.35 2.42 2.47 2.63 2.63 2.74 2.59 2.31 2.19 2.07 1.78 1.51 1.45 1.34 1.30 1.24 1.24 1.26 1.22 1.15 1.10
1.75 1.83 1.88 1.99 2.06 1.92 1.98 2.01 2.02 1.99 2.01 1.94 1.89 1.81 1.67 1.67 1.66 1.67 1.66 1.72 1.89 2.03 2.21 2.37 2.41 2.51 2.59 2.56 2.51 2.38 2.28 2.12 1.84 1.65 1.75 1.70 1.49 1.45 1.56 1.51 1.42 1.19 1.05
1.82 1.90 2.02 2.08 2.03 2.15 2.10 1.93 1.93 1.88 1.91 1.93 1.95 1.92 1.62 1.43 1.56 1.50 1.62 1.60 1.58 1.65 1.76 1.92 2.02 2.15 2.38 2.48 2.55 2.45 2.45 2.32 2.03 1.76 1.70 1.58 1.49 1.52 1.69 1.81 1.56 1.15 1.06
1.99 2.09 2.11 2.03 2.00 2.09 2.06 1.74 1.64 1.55 1.66 1.75 1.79 1.84 1.83 1.72 1.69 1.69 1.71 1.70 1.63 1.61 1.71 1.70 1.73 1.95 2.31 2.61 2.65 2.58 2.62 2.49 2.18 1.83 1.72 1.62 1.47 1.44 1.31 1.32 1.38 1.12 0.95
2.24 2.30 2.33 2.27 2.15 2.16 2.01 1.65 1.49 1.41 1.55 1.64 1.69 1.68 1.69 1.60 1.64 1.53 1.51 1.55 1.55 1.52 1.52 1.52 1.54 1.67 1.94 2.31 2.51 2.54 2.63 2.53 2.29 1.98 1.76 1.70 1.49 1.40 1.29 1.17 1.19 1.24 1.06
2.42 2.45 2.35 2.22 2.10 2.12 2.06 1.72 1.52 1.44 1.58 1.67 1.76 1.72 1.69 1.62 1.58 1.40 1.32 1.37 1.35 1.37 1.47 1.46 1.42 1.43 1.53 1.83 2.14 2.14 2.23 2.36 2.13 1.89 1.54 1.47 1.41 1.36 1.34 1.17 1.04 1.06 1.07